Location: Allie Creek
(37.5926°N, 89.8526°W)
Time: 19:31:00
(UTC+00:00)

CZ-2C R/B - Pass Details

Date: 26 September 2023
Orbit: 702 x 906 km, 98.1° (Epoch: 09 December)

Event Time Altitude Azimuth Distance (km) Brightness Sun altitude
Rises 10:00:45 0° 1° (N) 3,539 6.7 -22.3°
Reaches altitude 10° 10:03:29 10° 351° (N) 2,585 5.8 -21.8°
Enters shadow 10:08:06 29° 298° (WNW) 1,563 4.2 -20.9°
